Flag for Denmark Weather past 2 weeks in Vejle, Denmark

Now
34 °F

Partly sunny.


Feels Like: 28 °F
Forecast: 23 / 33 °F
Wind: 7 mph from West

Location: Billund Lufthavn

Current Time: Feb 1, 2015 at 3:10:28 PM

Latest Report: Feb 1, 2015 at 2:20 PM


Visibility: N/A

Pressure: 29.06 "Hg

Humidity: 87%

Dew point: 30 °F

Location of VejleLocation

Historic Weather in Vejle — Graph

°F

Vejle temperature yesterday

Maximum temperature yesterday: 32 °F (at 1:50 PM)
Minimum temperature yesterday: 16 °F (at 5:20 AM)
Average temperature yesterday: 24 °F

Past Weeks' High & Low Weather Summary

 TemperatureHumidityPressure
High43 °F (Jan 26, 3:20 PM)100% (Jan 17, 11:50 PM)30.27 "Hg (Jan 17, 11:50 PM)
Low16 °F (Jan 31, 5:20 AM)76% (Jan 27, 2:50 PM)28.68 "Hg (Jan 29, 8:50 PM)
Average32 °F95%29.67 "Hg
* Reported Jan 17 1:20 PM — Feb 1 1:20 PM, Vejle, Weather by CustomWeather, © 2014

Note: Actual official high and low records may vary slightly from our data, if they occured in-between our weather recording intervals... More about our weather records

Advertising

Vejle weather history for previous 24 hours

 ConditionsComfort  
Time TempWeatherWind HumidityBarometerVisibility
1:20 PM
Feb 1
34 °FPartly sunny.7 mph93%29.06 "HgN/A
12:50 PM34 °FBroken clouds.6 mph93%29.06 "HgN/A
12:20 PM34 °FBroken clouds.7 mph93%29.06 "HgN/A
11:50 AM32 °FBroken clouds.6 mph100%29.06 "HgN/A
11:20 AM32 °FPartly sunny.10 mph100%29.06 "HgN/A
10:50 AM32 °FSprinkles. Partly sunny.6 mph93%29.06 "Hg6 mi
10:20 AM30 °FPartly sunny.5 mph100%29.06 "Hg6 mi
9:50 AM28 °FPartly sunny.3 mph100%29.06 "Hg6 mi
9:20 AM28 °FIce fog.5 mph100%29.03 "Hg4 mi
8:50 AM23 °FIce fog.3 mph100%29.06 "Hg4 mi
8:20 AM25 °FLight fog.1 mph100%29.06 "Hg5 mi
7:50 AM25 °FLight fog.3 mph100%29.03 "Hg5 mi
7:20 AM25 °FPassing clouds.3 mph100%29.03 "HgN/A
6:50 AM27 °FFog.5 mph100%29.03 "HgN/A
6:20 AM27 °FPassing clouds.3 mph100%29.03 "HgN/A
5:50 AM27 °FPassing clouds.6 mph100%29.03 "HgN/A
5:20 AM27 °FPassing clouds.3 mph100%29.03 "HgN/A
4:50 AM25 °FPassing clouds.2 mph100%29.03 "HgN/A
4:20 AM25 °FPassing clouds.3 mph100%29.03 "Hg5 mi
3:50 AM23 °FPassing clouds.1 mph93%29.03 "Hg5 mi
3:20 AM21 °FPassing clouds.1 mph100%29.03 "Hg5 mi
2:50 AM18 °FPassing clouds.1 mph93%29.03 "Hg3 mi
2:20 AM18 °FLight fog.1 mph93%29.03 "Hg1 mi
1:50 AM19 °FLight fog.No wind93%29.03 "Hg1 mi
1:20 AM19 °FLight fog.1 mph100%29.03 "Hg1 mi
12:50 AM19 °FIce fog.1 mph93%29.03 "Hg1 mi
12:20 AM21 °FLight fog.No wind100%29.00 "Hg1 mi
12:03 AM23 °FLight fog.No wind93%29.03 "Hg1 mi
11:20 PM
Jan 31
23 °FLight fog.1 mph100%29.00 "Hg3 mi
10:50 PM25 °FFog.No wind100%29.00 "Hg4 mi
10:20 PM27 °FFog.5 mph100%29.00 "Hg5 mi
9:50 PM27 °FPassing clouds.7 mph93%29.00 "Hg5 mi
9:20 PM28 °FPassing clouds.6 mph93%29.00 "Hg6 mi
8:50 PM28 °FPassing clouds.6 mph93%29.00 "Hg5 mi
8:20 PM27 °FLight fog.6 mph100%28.97 "Hg3 mi
7:50 PM28 °FLight fog.5 mph100%28.97 "Hg5 mi
7:20 PM28 °FFog.5 mph100%28.97 "Hg5 mi
6:50 PM30 °FPartly cloudy.6 mph93%28.97 "HgN/A
6:20 PM30 °FPassing clouds.7 mph100%28.97 "HgN/A
5:50 PM32 °FPassing clouds.5 mph93%28.94 "Hg6 mi
5:20 PM30 °FPassing clouds.5 mph100%28.94 "Hg6 mi
3:50 PM32 °FBroken clouds.5 mph93%28.94 "HgN/A
3:20 PM32 °FScattered clouds.3 mph100%28.91 "HgN/A
Weather by CustomWeather, © 2014

See weather overviewHow to use our weather pages